Shelbyville, IN

1:09 AM EDT on May 01, 2017 (GMT -0400)
Shelbyville Municipal

Weather History for KGEZ - June, 2013

Change the Weather History Date:

Monday, June 17, 2013

  Actual Average Record
Temperature  
Mean Temperature 78 °F 72 °F  
Max Temperature 89 °F 83 °F 93 °F (2007)
Min Temperature 66 °F 62 °F 53 °F (1999)
Degree Days  
Heating Degree Days 0 0  
Month to date heating degree days 5 11  
Since 1 June heating degree days 5 11  
Since 1 July heating degree days 5076 5406  
Cooling Degree Days 13 7  
Month to date cooling degree days 120 100  
Year to date cooling degree days 288 181  
Since 1 June cooling degree days 120 100  
Growing Degree Days 26 (Base 50)    
Moisture  
Dew Point 67 °F    
Average Humidity 68    
Maximum Humidity 93    
Minimum Humidity 43    
Precipitation  
Precipitation 0.05 in 0.14 in 0.86 in (2000)
Month to date precipitation 1.43 2.61  
Year to date precipitation 13.74 20.39  
Sea Level Pressure  
Sea Level Pressure 29.93 in    
Wind  
Wind Speed 4 mph (SSW)    
Max Wind Speed 15 mph    
Max Gust Speed 18 mph    
Visibility 5 miles    
Events Fog , Rain , Thunderstorm    
T = Trace of Precipitation, MM = Missing Value Source: NWS Daily Summary

Daily Weather History Graph

Daily Weather History Graph

Search for Another Location

Airport or City:

Trip Planner

Search our weather history database for the weather conditions in past years. The results will help you decide how hot, cold, wet, or windy it might be!

Date:

Astronomy

Jun. 17, 2013 Rise Set
Actual Time 6:15 AM EDT 9:13 PM EDT
Civil Twilight 5:42 AM EDT 9:45 PM EDT
Nautical Twilight 5:01 AM EDT 10:26 PM EDT
Astronomical Twilight 4:13 AM EDT 11:14 PM EDT
Moon 2:52 PM EDT (6/17) 1:49 AM EDT (6/17)
Length of Visible Light 16h 03m
Length of Day
14h 57m
First Quarter, 60% of the Moon is Illuminated
Jun 17
First Quarter
Jun 23
Full
Jun 30
Last Quarter
Jul 8
New
Jul 15
First Quarter

Hourly Weather History & Observations

Time (EDT) Temp. Heat Index Dew Point Humidity Pressure Visibility Wind Dir Wind Speed Gust Speed Precip Events Conditions
12:53 AM 68.0 °F - 64.9 °F 90% 29.95 in 7.0 mi South 4.6 mph - N/A   Clear
1:53 AM 66.9 °F - 64.9 °F 93% 29.94 in 2.5 mi Calm Calm - N/A   Clear
2:26 AM 66.2 °F - 64.4 °F 94% 29.96 in 1.0 mi Calm Calm - N/A   Mist
2:31 AM 66.2 °F - 64.4 °F 94% 29.96 in 0.2 mi SSE 3.5 mph - N/A Fog Fog
2:38 AM 66.2 °F - 64.4 °F 94% 29.96 in 0.2 mi South 4.6 mph - N/A Fog Fog
2:43 AM 66.2 °F - 64.4 °F 94% 29.96 in 0.5 mi SSE 5.8 mph - N/A Fog Fog
2:53 AM 66.9 °F - 64.9 °F 93% 29.95 in 1.8 mi South 3.5 mph - N/A   Mostly Cloudy
3:00 AM 68.0 °F - 64.4 °F 88% 29.96 in 2.5 mi Calm Calm - N/A   Overcast
3:07 AM 68.0 °F - 66.2 °F 94% 29.97 in 0.8 mi SW 3.5 mph - N/A   Overcast
3:31 AM 69.8 °F - 66.2 °F 88% 29.96 in 1.2 mi Calm Calm - N/A   Overcast
3:48 AM 68.0 °F - 66.2 °F 94% 29.96 in 0.5 mi South 3.5 mph - N/A Fog Fog
3:53 AM 68.0 °F - 66.0 °F 93% 29.94 in 0.5 mi South 3.5 mph - N/A Fog Fog
4:02 AM 68.0 °F - 66.2 °F 94% 29.96 in 1.0 mi Calm Calm - N/A   Mostly Cloudy
4:15 AM 68.0 °F - 66.2 °F 94% 29.96 in 0.5 mi SSW 3.5 mph - N/A Fog Fog
4:24 AM 68.0 °F - 66.2 °F 94% 29.96 in 0.2 mi SSW 3.5 mph - N/A Fog Fog
4:53 AM 68.0 °F - 66.0 °F 93% 29.94 in 0.2 mi South 5.8 mph - N/A Fog Fog
5:05 AM 69.8 °F - 66.2 °F 88% 29.95 in 0.2 mi South 4.6 mph - N/A Fog Fog
5:53 AM 69.1 °F - 66.9 °F 93% 29.94 in 0.2 mi South 3.5 mph - N/A Fog Fog
6:53 AM 71.1 °F - 66.9 °F 87% 29.94 in 0.2 mi Calm Calm - N/A Fog Fog
7:53 AM 72.0 °F - 68.0 °F 87% 29.94 in 0.5 mi South 5.8 mph - N/A Fog Fog
7:59 AM 71.6 °F - 68.0 °F 88% 29.97 in 0.2 mi SSW 4.6 mph - N/A Fog Fog
8:53 AM 73.0 °F - 68.0 °F 84% 29.95 in 0.2 mi South 4.6 mph - N/A   Haze
9:27 AM 73.4 °F - 69.8 °F 88% 29.97 in 1.0 mi SSW 3.5 mph - N/A   Haze
9:53 AM 73.9 °F - 69.1 °F 85% 29.96 in 2.0 mi South 3.5 mph - N/A   Haze
10:53 AM 75.9 °F - 70.0 °F 82% 29.96 in 2.5 mi Calm Calm - N/A   Haze
11:09 AM 75.2 °F - 69.8 °F 83% 29.98 in 3.0 mi Calm Calm - N/A   Haze
11:53 AM 78.1 °F - 71.1 °F 79% 29.95 in 4.0 mi Calm Calm - N/A   Haze
12:06 PM 80.6 °F 84.6 °F 71.6 °F 74% 29.96 in 5.0 mi Calm Calm - N/A   Haze
12:15 PM 80.6 °F 84.6 °F 71.6 °F 74% 29.97 in 6.0 mi Calm Calm - N/A   Haze
12:24 PM 80.6 °F 83.9 °F 69.8 °F 70% 29.96 in 6.0 mi Calm Calm - N/A   Haze
12:31 PM 80.6 °F 83.9 °F 69.8 °F 70% 29.96 in 7.0 mi Calm Calm - N/A   Mostly Cloudy
12:40 PM 82.4 °F 86.3 °F 69.8 °F 66% 29.96 in 8.0 mi Calm Calm - N/A   Partly Cloudy
12:53 PM 82.9 °F 87.0 °F 70.0 °F 65% 29.94 in 10.0 mi Calm Calm - N/A   Partly Cloudy
1:53 PM 84.0 °F 86.5 °F 66.9 °F 56% 29.94 in 10.0 mi Calm Calm - N/A   Scattered Clouds
2:53 PM 86.0 °F 87.6 °F 64.9 °F 49% 29.92 in 10.0 mi SSW 5.8 mph - N/A   Partly Cloudy
3:53 PM 87.1 °F 88.3 °F 64.0 °F 46% 29.88 in 10.0 mi Calm Calm - N/A   Clear
4:53 PM 87.1 °F 87.5 °F 62.1 °F 43% 29.86 in 10.0 mi West 3.5 mph - N/A   Clear
5:53 PM 87.1 °F 87.5 °F 62.1 °F 43% 29.85 in 10.0 mi NE 3.5 mph - N/A   Scattered Clouds
6:53 PM 84.0 °F 86.3 °F 66.0 °F 55% 29.86 in 10.0 mi ENE 4.6 mph - N/A   Scattered Clouds
7:53 PM 81.0 °F 83.3 °F 66.9 °F 62% 29.87 in 10.0 mi East 3.5 mph - N/A   Clear
8:53 PM 80.1 °F 82.7 °F 68.0 °F 67% 29.88 in 10.0 mi North 3.5 mph - N/A   Mostly Cloudy
9:13 PM 80.6 °F 82.7 °F 66.2 °F 61% 29.90 in 10.0 mi Calm Calm - N/A Thunderstorm Thunderstorm
9:27 PM 78.8 °F - 68.0 °F 69% 29.89 in 10.0 mi South 3.5 mph - N/A   Overcast
9:53 PM 79.0 °F - 66.9 °F 66% 29.88 in 9.0 mi West 3.5 mph - N/A   Overcast
10:08 PM 78.8 °F - 66.2 °F 65% 29.90 in 10.0 mi NW 5.8 mph - 0.00 in Rain , Thunderstorm Light Thunderstorms and Rain
10:26 PM 73.4 °F - 64.4 °F 73% 29.90 in 4.0 mi NW 8.1 mph - 0.04 in Rain Heavy Rain
10:53 PM 75.9 °F - 66.9 °F 74% 29.89 in 10.0 mi South 8.1 mph 17.3 mph 0.05 in Rain Light Rain
11:10 PM 75.2 °F - 68.0 °F 78% 29.92 in 10.0 mi SSW 12.7 mph - 0.00 in Thunderstorm Mostly Cloudy
11:25 PM 73.4 °F - 66.2 °F 78% 29.92 in 10.0 mi WSW 10.4 mph - 0.00 in   Scattered Clouds
11:53 PM 71.1 °F - 64.9 °F 81% 29.89 in 10.0 mi WSW 10.4 mph - 0.00 in   Clear